Location: ?kun?ru
(16.3916°N, 80.8194°E)
Time: 14:56:10
(UTC+00:00)

Cosmos 1400 Rocket - Pass Details

Date: 19 May 2025
Orbit: 484 x 519 km, 81.1° (Epoch: 18 June)

Event Time Altitude Azimuth Distance (km) Brightness Sun altitude
Exits shadow 14:45:04 22° 23° (NNE) 1,115 4.4 -23.2°
Drops below altitude 10° 14:46:30 10° 16° (NNE) 1,677 5.4 -23.5°
Sets 14:48:37 0° 12° (NNE) 2,554 6.5 -24.0°
